Location: Klein M�hlingen
(51.9472°N, 11.7453°E)
Time: 22:46:32
(UTC+00:00)

Cosmos 1833 Rocket - Pass Details

Date: 09 April 2020
Orbit: 834 x 838 km, 71.0° (Epoch: 24 May)

Event Time Altitude Azimuth Distance (km) Brightness Sun altitude
Exits shadow 22:20:40 25° 258° (WSW) 1,642 4.2 -28.9°
Maximum altitude 22:23:27 41° 312° (NW) 1,197 3.8 -29.0°
Drops below altitude 10° 22:28:47 10° 22° (NNE) 2,462 5.8 -29.2°
Sets 22:31:23 0° 30° (NNE) 3,399 6.5 -29.3°
